| time (UTC) | temp F | wind direction | speed MPH | gust MPH | rain 1hr in | rain 24hr in | rain mn in | humidity % | barometer mb |
| 20260506101528 | 68 | 360 | 7.0 | 11.0 | 0.00 | 0.00 | 0.00 | 54 | 1007.1 |
| 20260506100029 | 67 | 360 | 1.0 | 5.0 | 0.00 | 0.00 | 0.00 | 58 | 1007.2 |
| 20260506094527 | 69 | 360 | 1.0 | 4.0 | 0.00 | 0.00 | 0.00 | 53 | 1007.2 |
| 20260506093026 | 68 | 360 | 5.0 | 14.0 | 0.00 | 0.00 | 0.00 | 53 | 1007.4 |
| 20260506091524 | 67 | 360 | 4.0 | 9.0 | 0.00 | 0.00 | 0.00 | 55 | 1007.7 |
| 20260506090038 | 67 | 360 | 5.0 | 8.0 | 0.00 | 0.00 | 0.00 | 59 | 1007.7 |
| 20260506084523 | 66 | 360 | 1.0 | 6.0 | 0.00 | 0.00 | 0.00 | 60 | 1007.6 |
| 20260506083019 | 66 | 360 | 2.0 | 6.0 | 0.00 | 0.00 | 0.00 | 61 | 1007.8 |
| 20260506081516 | 64 | 360 | 2.0 | 5.0 | 0.00 | 0.00 | 0.00 | 68 | 1007.9 |
| 20260506073009 | 62 | 360 | 2.0 | 5.0 | 0.00 | 0.00 | 0.00 | 68 | 1008.1 |
| 20260506071508 | 62 | 360 | 0.0 | 8.0 | 0.00 | 0.00 | 0.00 | 69 | 1008.3 |
| 20260506061501 | 58 | 360 | 7.0 | 10.0 | 0.00 | 0.00 | 0.00 | 73 | 1008.4 |
| 20260506050108 | 49 | 360 | 0.0 | 1.0 | 0.00 | 0.00 | 0.00 | 90 | 1008.5 |
| 20260506044553 | 47 | 360 | 0.0 | 0.0 | 0.00 | 0.00 | 0.00 | 91 | 1008.5 |
| 20260506043059 | 44 | 360 | 0.0 | 0.0 | 0.00 | 0.00 | 0.00 | 90 | 1008.5 |
| 20260506041552 | 43 | 360 | 0.0 | 0.0 | 0.00 | 0.00 | 0.00 | 88 | 1008.0 |
| 20260506040101 | 44 | 360 | 0.0 | 0.0 | 0.00 | 0.00 | 0.00 | 88 | 1007.8 |
| 20260506034556 | 43 | 360 | 0.0 | 0.0 | 0.00 | 0.00 | 0.00 | 88 | 1007.7 |
| 20260506033050 | 43 | 360 | 0.0 | 0.0 | 0.00 | 0.00 | 0.00 | 86 | 1007.6 |
| 20260506031550 | 44 | 360 | 0.0 | 0.0 | 0.00 | 0.00 | 0.00 | 85 | 1007.5 |
| 20260506030045 | 46 | 360 | 0.0 | 0.0 | 0.00 | 0.00 | 0.00 | 84 | 1007.6 |
| 20260506024546 | 49 | 360 | 0.0 | 0.0 | 0.00 | 0.00 | 0.00 | 85 | 1007.7 |
| 20260506023036 | 50 | 360 | 0.0 | 3.0 | 0.00 | 0.00 | 0.00 | 86 | 1007.7 |
| 20260506021538 | 50 | 360 | 0.0 | 2.0 | 0.00 | 0.00 | 0.00 | 86 | 1007.7 |
| 20260506020033 | 50 | 360 | 2.0 | 5.0 | 0.00 | 0.00 | 0.00 | 85 | 1007.8 |
| 20260506014532 | 50 | 360 | 3.0 | 5.0 | 0.00 | 0.00 | 0.00 | 86 | 1007.8 |
| 20260506013031 | 50 | 360 | 2.0 | 4.0 | 0.00 | 0.00 | 0.00 | 86 | 1007.8 |
| 20260506011536 | 51 | 360 | 1.0 | 4.0 | 0.00 | 0.00 | 0.00 | 85 | 1007.7 |
| 20260506010029 | 51 | 360 | 2.0 | 5.0 | 0.00 | 0.00 | 0.00 | 85 | 1007.8 |
| 20260506004526 | 52 | 360 | 4.0 | 9.0 | 0.00 | 0.00 | 0.00 | 84 | 1007.7 |
| 20260506003023 | 53 | 360 | 4.0 | 8.0 | 0.00 | 0.00 | 0.00 | 84 | 1007.7 |
| 20260506001521 | 53 | 360 | 4.0 | 8.0 | 0.00 | 0.00 | 0.00 | 83 | 1007.6 |
| 20260506000017 | 55 | 360 | 9.0 | 14.0 | 0.00 | 0.00 | 0.00 | 81 | 1007.4 |
| 20260505234519 | 55 | 360 | 8.0 | 11.0 | 0.00 | 0.00 | 0.00 | 81 | 1007.3 |
| 20260505233011 | 56 | 360 | 6.0 | 10.0 | 0.00 | 0.00 | 0.00 | 79 | 1007.2 |
| 20260505231511 | 57 | 360 | 6.0 | 11.0 | 0.00 | 0.00 | 0.00 | 77 | 1006.9 |
| 20260505230009 | 58 | 360 | 6.0 | 11.0 | 0.00 | 0.00 | 0.00 | 76 | 1006.7 |
| 20260505224507 | 58 | 360 | 7.0 | 14.0 | 0.00 | 0.00 | 0.00 | 75 | 1006.7 |
| 20260505223004 | 59 | 360 | 10.0 | 18.0 | 0.00 | 0.00 | 0.00 | 74 | 1006.8 |
| 20260505221501 | 60 | 360 | 11.0 | 18.0 | 0.00 | 0.00 | 0.00 | 70 | 1006.7 |
| 20260505220058 | 61 | 360 | 9.0 | 16.0 | 0.00 | 0.00 | 0.00 | 69 | 1006.2 |
| 20260505214616 | 61 | 360 | 12.0 | 22.0 | 0.00 | 0.00 | 0.00 | 68 | 1006.1 |
| 20260505213103 | 62 | 360 | 14.0 | 22.0 | 0.00 | 0.00 | 0.00 | 66 | 1006.3 |
| 20260505211606 | 62 | 360 | 13.0 | 25.0 | 0.00 | 0.00 | 0.00 | 65 | 1006.2 |
| 20260505210056 | 63 | 360 | 15.0 | 26.0 | 0.00 | 0.00 | 0.00 | 63 | 1006.1 |
| 20260505204555 | 63 | 360 | 11.0 | 19.0 | 0.00 | 0.00 | 0.00 | 63 | 1005.8 |
| 20260505203054 | 64 | 360 | 14.0 | 23.0 | 0.00 | 0.00 | 0.00 | 63 | 1005.6 |
| 20260505201557 | 64 | 360 | 10.0 | 17.0 | 0.00 | 0.00 | 0.00 | 63 | 1005.2 |
| 20260505194556 | 60 | 360 | 0.0 | 0.0 | 0.00 | 0.00 | 0.00 | 74 | 1004.4 |
| 20260505193053 | 60 | 360 | 0.0 | 0.0 | 0.00 | 0.00 | 0.00 | 73 | 1004.2 |
| 20260505191552 | 61 | 360 | 0.0 | 0.0 | 0.00 | 0.00 | 0.00 | 71 | 1004.1 |
| 20260505190051 | 62 | 360 | 0.0 | 1.0 | 0.00 | 0.00 | 0.00 | 70 | 1004.1 |
| 20260505184551 | 63 | 360 | 0.0 | 0.0 | 0.00 | 0.00 | 0.00 | 69 | 1003.9 |
| 20260505183103 | 64 | 360 | 0.0 | 0.0 | 0.00 | 0.00 | 0.00 | 66 | 1003.9 |
| 20260505181553 | 65 | 360 | 0.0 | 2.0 | 0.00 | 0.00 | 0.00 | 64 | 1003.8 |
| 20260505180055 | 67 | 360 | 0.0 | 1.0 | 0.00 | 0.00 | 0.00 | 61 | 1003.8 |
| 20260505174558 | 69 | 360 | 0.0 | 1.0 | 0.00 | 0.00 | 0.00 | 54 | 1003.8 |
| 20260505173051 | 70 | 360 | 0.0 | 0.0 | 0.00 | 0.00 | 0.00 | 51 | 1003.9 |
| 20260505171551 | 72 | 360 | 0.0 | 4.0 | 0.00 | 0.00 | 0.00 | 46 | 1003.9 |
| 20260505170049 | 73 | 360 | 2.0 | 4.0 | 0.00 | 0.00 | 0.00 | 41 | 1003.9 |
| 20260505164549 | 74 | 360 | 2.0 | 6.0 | 0.00 | 0.00 | 0.00 | 40 | 1004.0 |
| 20260505163048 | 75 | 360 | 2.0 | 5.0 | 0.00 | 0.00 | 0.00 | 39 | 1004.2 |
| 20260505161546 | 75 | 360 | 4.0 | 10.0 | 0.00 | 0.00 | 0.00 | 38 | 1004.3 |
| 20260505153043 | 76 | 360 | 4.0 | 11.0 | 0.00 | 0.00 | 0.00 | 37 | 1004.7 |
| 20260505151542 | 75 | 360 | 4.0 | 10.0 | 0.00 | 0.00 | 0.00 | 36 | 1004.9 |
| 20260505124533 | 71 | 360 | 5.0 | 12.0 | 0.00 | 0.00 | 0.00 | 48 | 1006.7 |
| 20260505123029 | 71 | 360 | 2.0 | 13.0 | 0.00 | 0.00 | 0.00 | 50 | 1006.9 |
| 20260505121534 | 72 | 360 | 3.0 | 12.0 | 0.00 | 0.00 | 0.00 | 49 | 1006.9 |
| 20260505120037 | 72 | 360 | 4.0 | 10.0 | 0.00 | 0.00 | 0.00 | 47 | 1007.1 |
| 20260505114523 | 73 | 360 | 5.0 | 12.0 | 0.00 | 0.00 | 0.00 | 45 | 1007.1 |
| 20260505113022 | 74 | 360 | 6.0 | 11.0 | 0.00 | 0.00 | 0.00 | 44 | 1007.1 |
| 20260505111521 | 74 | 360 | 5.0 | 11.0 | 0.00 | 0.00 | 0.00 | 43 | 1007.3 |